Content
SEND FEEDBACK

Daily
Averages
Monthly
Summary
United States of America

ASATDAS, GUAM


Home > North America > United States > Guam
Elevation: 612 feet     Latitude: 13 35N     Longitude: 144 56E

WEATHER
 
SELECT A DAY
Number of Records: 209,106;   Date Range: 1/1/95 - 8/12/14
 
SHARE

PRINT THIS DATA

[ ← Previous Day ]
WEATHER ALMANAC - NOVEMBER 9, 2013
[ Next Day → ]
[ °C ]   °F
Weather ElementAverageHighLow
Temperature83 °F88 °F (11:54 am)80.1 °F (1:54 am)
Dewpoint75.3 °F77 °F (3:54 pm)73 °F (11:54 pm)
Humidity78.3 %88 % (3:54 pm)63 % (11:54 am)
Barometer29.84 in29.89 in (8:54 am)29.80 in (2:54 pm)
Wind Speed15.7 mph20.7 mph (12:54 pm)
Wind Gust31.1 mph (8:54 am)
Weather ElementAverage
Visibility9.9 mi
Wind DirectionENE (67.4 °)

Weather ElementTotal
Precipitation0.03 in
Cooling Degree Days19.1 (Base 65)
Growing Degree Days34.1 (Base 50)
Averaged from 23 records on November 9, 2013
WEATHER CONDITIONS BREAKOUT
WIND DIRECTION BREAKOUT
WEATHER BY HOUR - NOVEMBER 9, 2013
[ °C ]   °F
Local TimeTemperatureDewpointHumidityBarometerVisibilityWind DirectionWind SpeedGust SpeedPrecipitationEventsConditions
1:54 AM80.1 °F75.9 °F87 %29.85 in10.0 miENE (60°)13.8 mph0.01 inScattered Clouds
2:54 AM81.0 °F75.9 °F85 %29.84 in10.0 miENE (60°)13.8 mphClear
3:54 AM81.0 °F75.9 °F85 %29.83 in10.0 miENE (60°)13.8 mphPartly Cloudy
4:54 AM81.0 °F75.0 °F82 %29.83 in10.0 miENE (60°)10.4 mphScattered Clouds
5:54 AM81.0 °F75.0 °F82 %29.85 in10.0 miENE (60°)12.7 mphPartly Cloudy
6:54 AM81.0 °F75.9 °F85 %29.86 in10.0 miENE (60°)12.7 mph0.00 inClear
7:54 AM82.0 °F75.9 °F82 %29.88 in10.0 miENE (70°)17.3 mph29.9 mph0.00 inPartly Cloudy
8:54 AM84.0 °F75.0 °F74 %29.89 in10.0 miENE (70°)19.6 mph31.1 mphClear
9:54 AM86.0 °F75.9 °F72 %29.89 in10.0 miENE (70°)17.3 mph27.6 mphPartly Cloudy
10:54 AM87.1 °F75.9 °F69 %29.87 in10.0 miENE (70°)19.6 mph24.2 mphMostly Cloudy
11:54 AM88.0 °F73.9 °F63 %29.84 in10.0 miENE (70°)18.4 mph27.6 mphClear
12:54 PM88.0 °F73.9 °F63 %29.82 in10.0 miENE (70°)20.7 mph28.8 mphClear
1:54 PM88.0 °F75.0 °F65 %29.81 in10.0 miEast (80°)20.7 mph27.6 mphPartly Cloudy
2:54 PM87.1 °F75.0 °F67 %29.80 in10.0 miEast (80°)20.7 mph29.9 mphPartly Cloudy
3:54 PM81.0 °F77.0 °F88 %29.81 in10.0 miENE (70°)17.3 mph24.2 mph0.01 inMostly Cloudy
4:54 PM82.9 °F73.9 °F74 %29.81 in10.0 miENE (70°)13.8 mph0.00 inMostly Cloudy
5:54 PM82.0 °F75.0 °F79 %29.81 in10.0 miENE (60°)10.4 mphScattered Clouds
6:54 PM82.9 °F75.9 °F79 %29.83 in10.0 miENE (70°)13.8 mphScattered Clouds
7:54 PM81.0 °F75.9 °F85 %29.86 in7.0 miENE (60°)16.1 mph21.9 mph0.01 inRainLight Rain
8:54 PM81.0 °F77.0 °F88 %29.87 in10.0 miENE (60°)16.1 mph0.00 inRainLight Rain
9:54 PM80.1 °F75.9 °F87 %29.86 in10.0 miENE (60°)11.5 mph0.00 inMostly Cloudy
10:54 PM81.0 °F75.0 °F82 %29.86 in10.0 miEast (80°)15.0 mph23.0 mphScattered Clouds
11:54 PM81.0 °F73.0 °F77 %29.84 in10.0 miEast (80°)16.1 mphPartly Cloudy
Hourly data recorded from PGUM, located miles away from Asatdas, Guam







STORIES FROM OUR PARTNERS